| time (UTC) | temp C | wind direction | speed KPH | gust KPH | rain 1hr cm | rain 24hr cm | rain mn cm | humidity % | barometer mb |
| 20260903043518 | 25 | 96 | 0.0 | 0.0 | 0.00 | 0.00 | 0.00 | 71 | 1018.0 |
| 20260903043029 | 25 | 96 | 0.0 | 0.0 | 0.00 | 0.00 | 0.00 | 71 | 1018.0 |
| 20260903042516 | 25 | 96 | 0.0 | 0.0 | 0.00 | 0.00 | 0.00 | 71 | 1018.1 |
| 20260903042008 | 25 | 96 | 0.0 | 0.0 | 0.00 | 0.00 | 0.00 | 70 | 1018.0 |
| 20260903041511 | 25 | 96 | 0.0 | 0.0 | 0.00 | 0.00 | 0.00 | 70 | 1018.0 |
| 20260903041011 | 25 | 96 | 0.0 | 0.0 | 0.00 | 0.00 | 0.00 | 69 | 1018.0 |
| 20260903040510 | 25 | 96 | 0.0 | 0.0 | 0.00 | 0.00 | 0.00 | 69 | 1018.0 |
| 20260903040018 | 26 | 96 | 0.0 | 0.0 | 0.00 | 0.00 | 0.00 | 69 | 1018.0 |
| 20260903035513 | 26 | 96 | 0.0 | 0.0 | 0.00 | 0.00 | 0.00 | 68 | 1018.0 |
| 20260903035018 | 26 | 96 | 0.0 | 0.0 | 0.00 | 0.00 | 0.00 | 68 | 1018.0 |
| 20260903034533 | 26 | 96 | 0.0 | 0.0 | 0.00 | 0.00 | 0.00 | 68 | 1018.1 |
| 20260903034014 | 26 | 96 | 0.0 | 0.0 | 0.00 | 0.00 | 0.00 | 68 | 1018.2 |
| 20260903033515 | 26 | 96 | 0.0 | 0.0 | 0.00 | 0.00 | 0.00 | 70 | 1018.1 |
| 20260903033030 | 26 | 96 | 0.0 | 0.0 | 0.00 | 0.00 | 0.00 | 70 | 1018.1 |
| 20260903032515 | 26 | 96 | 0.0 | 0.0 | 0.00 | 0.00 | 0.00 | 71 | 1018.1 |
| 20260903032015 | 26 | 96 | 0.0 | 0.0 | 0.00 | 0.00 | 0.00 | 70 | 1018.1 |
| 20260903031532 | 26 | 96 | 0.0 | 0.0 | 0.00 | 0.00 | 0.00 | 69 | 1018.1 |
| 20260903031015 | 26 | 96 | 0.0 | 0.0 | 0.00 | 0.00 | 0.00 | 67 | 1018.1 |
| 20260903030511 | 26 | 96 | 0.0 | 0.0 | 0.00 | 0.00 | 0.00 | 67 | 1018.2 |
| 20260903030016 | 26 | 96 | 0.0 | 0.0 | 0.00 | 0.00 | 0.00 | 67 | 1018.2 |
| 20260903025510 | 26 | 96 | 0.0 | 0.0 | 0.00 | 0.00 | 0.00 | 68 | 1018.2 |
| 20260903025009 | 26 | 96 | 0.0 | 0.0 | 0.00 | 0.00 | 0.00 | 68 | 1018.1 |
| 20260903024520 | 26 | 96 | 0.0 | 0.0 | 0.00 | 0.00 | 0.00 | 68 | 1018.2 |
| 20260903024012 | 26 | 96 | 0.0 | 0.0 | 0.00 | 0.00 | 0.00 | 67 | 1018.1 |
| 20260903023514 | 27 | 96 | 0.0 | 0.0 | 0.00 | 0.00 | 0.00 | 67 | 1018.2 |
| 20260903023026 | 27 | 96 | 0.0 | 0.0 | 0.00 | 0.00 | 0.00 | 67 | 1018.2 |
| 20260903022514 | 27 | 96 | 0.0 | 0.0 | 0.00 | 0.00 | 0.00 | 68 | 1018.2 |
| 20260903022013 | 27 | 96 | 0.0 | 0.0 | 0.00 | 0.00 | 0.00 | 67 | 1018.2 |
| 20260903021532 | 27 | 96 | 0.0 | 0.0 | 0.00 | 0.00 | 0.00 | 67 | 1018.3 |
| 20260903021018 | 27 | 96 | 0.0 | 0.0 | 0.00 | 0.00 | 0.00 | 66 | 1018.3 |
| 20260903020517 | 27 | 96 | 0.0 | 0.0 | 0.00 | 0.00 | 0.00 | 67 | 1018.3 |
| 20260903020040 | 27 | 96 | 0.0 | 0.0 | 0.00 | 0.00 | 0.00 | 66 | 1018.3 |
| 20260903015515 | 27 | 96 | 0.0 | 0.0 | 0.00 | 0.00 | 0.00 | 64 | 1018.3 |
| 20260903015011 | 27 | 96 | 0.0 | 0.0 | 0.00 | 0.00 | 0.00 | 64 | 1018.3 |
| 20260903014520 | 27 | 96 | 0.0 | 0.0 | 0.00 | 0.00 | 0.00 | 63 | 1018.2 |
| 20260903014012 | 27 | 96 | 0.0 | 0.0 | 0.00 | 0.00 | 0.00 | 63 | 1018.2 |
| 20260903013514 | 27 | 96 | 0.0 | 0.0 | 0.00 | 0.00 | 0.00 | 62 | 1018.3 |
| 20260903013023 | 28 | 96 | 0.0 | 0.0 | 0.00 | 0.00 | 0.00 | 60 | 1018.3 |
| 20260903012518 | 28 | 96 | 0.0 | 0.0 | 0.00 | 0.00 | 0.00 | 60 | 1018.3 |
| 20260903012017 | 28 | 96 | 0.0 | 0.0 | 0.00 | 0.00 | 0.00 | 60 | 1018.2 |
| 20260903011529 | 28 | 96 | 0.0 | 0.0 | 0.00 | 0.00 | 0.00 | 59 | 1018.2 |
| 20260903011021 | 28 | 96 | 0.0 | 0.0 | 0.00 | 0.00 | 0.00 | 58 | 1018.2 |
| 20260903010515 | 28 | 96 | 0.0 | 0.0 | 0.00 | 0.00 | 0.00 | 58 | 1017.9 |
| 20260903010039 | 28 | 96 | 0.0 | 0.0 | 0.00 | 0.00 | 0.00 | 57 | 1017.9 |
| 20260903005518 | 28 | 96 | 0.0 | 0.0 | 0.00 | 0.00 | 0.00 | 57 | 1017.8 |
| 20260903005019 | 28 | 96 | 0.0 | 0.0 | 0.00 | 0.00 | 0.00 | 57 | 1017.9 |
| 20260903004529 | 28 | 96 | 0.0 | 0.0 | 0.00 | 0.00 | 0.00 | 57 | 1017.8 |
| 20260903004020 | 29 | 96 | 0.0 | 0.0 | 0.00 | 0.00 | 0.00 | 56 | 1017.8 |
| 20260903003509 | 29 | 96 | 0.0 | 0.0 | 0.00 | 0.00 | 0.00 | 55 | 1017.8 |
| 20260903003021 | 29 | 96 | 0.0 | 0.0 | 0.00 | 0.00 | 0.00 | 55 | 1017.8 |
| 20260903002514 | 30 | 96 | 0.0 | 0.0 | 0.00 | 0.00 | 0.00 | 54 | 1017.8 |
| 20260903002014 | 30 | 96 | 0.0 | 0.0 | 0.00 | 0.00 | 0.00 | 54 | 1017.8 |
| 20260903001526 | 30 | 96 | 0.0 | 0.0 | 0.00 | 0.00 | 0.00 | 54 | 1017.8 |
| 20260903001019 | 30 | 96 | 0.0 | 0.0 | 0.00 | 0.00 | 0.00 | 52 | 1017.8 |
| 20260903000513 | 30 | 96 | 0.0 | 0.0 | 0.00 | 0.00 | 0.00 | 52 | 1017.8 |
| 20260903000030 | 30 | 96 | 0.0 | 0.0 | 0.00 | 0.00 | 0.00 | 51 | 1017.8 |
| 20260902235517 | 31 | 96 | 0.0 | 0.0 | 0.00 | 0.00 | 0.00 | 51 | 1017.9 |
| 20260902235016 | 31 | 96 | 0.0 | 0.0 | 0.00 | 0.00 | 0.00 | 50 | 1017.9 |
| 20260902234534 | 31 | 96 | 0.0 | 0.0 | 0.00 | 0.00 | 0.00 | 50 | 1017.9 |
| 20260902234014 | 31 | 96 | 0.0 | 0.0 | 0.00 | 0.00 | 0.00 | 49 | 1018.0 |
| 20260902233514 | 31 | 96 | 0.0 | 0.0 | 0.00 | 0.00 | 0.00 | 48 | 1018.0 |
| 20260902233032 | 31 | 96 | 0.0 | 1.6 | 0.00 | 0.00 | 0.00 | 48 | 1018.0 |
| 20260902232518 | 31 | 96 | 0.0 | 1.6 | 0.00 | 0.00 | 0.00 | 48 | 1017.9 |
| 20260902232014 | 32 | 96 | 0.0 | 1.6 | 0.00 | 0.00 | 0.00 | 48 | 1018.0 |
| 20260902231539 | 32 | 96 | 0.0 | 1.6 | 0.00 | 0.00 | 0.00 | 47 | 1018.0 |
| 20260902231016 | 32 | 96 | 0.0 | 3.2 | 0.00 | 0.00 | 0.00 | 45 | 1018.0 |
| 20260902230513 | 32 | 96 | 1.6 | 3.2 | 0.00 | 0.00 | 0.00 | 43 | 1018.0 |
| 20260902230029 | 32 | 96 | 0.0 | 1.6 | 0.00 | 0.00 | 0.00 | 44 | 1018.0 |
| 20260902225521 | 32 | 81 | 0.0 | 3.2 | 0.00 | 0.00 | 0.00 | 43 | 1018.0 |
| 20260902225020 | 32 | 81 | 0.0 | 3.2 | 0.00 | 0.00 | 0.00 | 41 | 1018.0 |
| 20260902224532 | 33 | 81 | 0.0 | 3.2 | 0.00 | 0.00 | 0.00 | 42 | 1017.9 |
| 20260902224016 | 33 | 74 | 0.0 | 3.2 | 0.00 | 0.00 | 0.00 | 39 | 1017.9 |
| 20260902223514 | 33 | 153 | 0.0 | 3.2 | 0.00 | 0.00 | 0.00 | 40 | 1017.9 |
| 20260902223041 | 33 | 126 | 0.0 | 3.2 | 0.00 | 0.00 | 0.00 | 39 | 1017.9 |
| 20260902222524 | 33 | 119 | 0.0 | 3.2 | 0.00 | 0.00 | 0.00 | 38 | 1018.0 |
| 20260902222016 | 33 | 142 | 0.0 | 4.8 | 0.00 | 0.00 | 0.00 | 38 | 1018.0 |
| 20260902221524 | 33 | 155 | 0.0 | 6.4 | 0.00 | 0.00 | 0.00 | 38 | 1018.1 |
| 20260902221012 | 33 | 152 | 0.0 | 9.7 | 0.00 | 0.00 | 0.00 | 39 | 1018.1 |
| 20260902220512 | 33 | 211 | 1.6 | 9.7 | 0.00 | 0.00 | 0.00 | 40 | 1018.1 |
| 20260902220033 | 33 | 93 | 0.0 | 9.7 | 0.00 | 0.00 | 0.00 | 39 | 1018.2 |
| 20260902215513 | 33 | 175 | 3.2 | 9.7 | 0.00 | 0.00 | 0.00 | 39 | 1018.1 |
| 20260902215015 | 33 | 94 | 0.0 | 6.4 | 0.00 | 0.00 | 0.00 | 39 | 1018.2 |
| 20260902214516 | 33 | 151 | 0.0 | 12.9 | 0.00 | 0.00 | 0.00 | 39 | 1018.2 |
| 20260902214006 | 33 | 164 | 4.8 | 12.9 | 0.00 | 0.00 | 0.00 | 39 | 1018.2 |
| 20260902213506 | 33 | 81 | 0.0 | 6.4 | 0.00 | 0.00 | 0.00 | 39 | 1018.2 |
| 20260902213031 | 33 | 98 | 0.0 | 6.4 | 0.00 | 0.00 | 0.00 | 42 | 1018.2 |
| 20260902212510 | 33 | 128 | 0.0 | 6.4 | 0.00 | 0.00 | 0.00 | 39 | 1018.2 |
| 20260902212007 | 34 | 155 | 1.6 | 6.4 | 0.00 | 0.00 | 0.00 | 39 | 1018.3 |
| 20260902211516 | 34 | 117 | 1.6 | 4.8 | 0.00 | 0.00 | 0.00 | 39 | 1018.3 |
| 20260902211009 | 34 | 78 | 1.6 | 9.7 | 0.00 | 0.00 | 0.00 | 39 | 1018.3 |
| 20260902210514 | 34 | 211 | 1.6 | 14.5 | 0.00 | 0.00 | 0.00 | 38 | 1018.3 |
| 20260902210025 | 35 | 246 | 6.4 | 14.5 | 0.00 | 0.00 | 0.00 | 38 | 1018.3 |
| 20260902205515 | 35 | 106 | 0.0 | 6.4 | 0.00 | 0.00 | 0.00 | 37 | 1018.4 |
| 20260902205015 | 35 | 74 | 1.6 | 4.8 | 0.00 | 0.00 | 0.00 | 35 | 1018.4 |
| 20260902204527 | 35 | 132 | 0.0 | 4.8 | 0.00 | 0.00 | 0.00 | 38 | 1018.4 |
| 20260902204015 | 35 | 136 | 1.6 | 4.8 | 0.00 | 0.00 | 0.00 | 37 | 1018.4 |
| 20260902203516 | 35 | 80 | 1.6 | 6.4 | 0.00 | 0.00 | 0.00 | 36 | 1018.4 |
| 20260902203008 | 36 | 115 | 0.0 | 6.4 | 0.00 | 0.00 | 0.00 | 36 | 1018.5 |
| 20260902202506 | 35 | 93 | 0.0 | 4.8 | 0.00 | 0.00 | 0.00 | 37 | 1018.6 |
| 20260902202006 | 35 | 74 | 1.6 | 4.8 | 0.00 | 0.00 | 0.00 | 36 | 1018.6 |
| 20260902201513 | 35 | 76 | 1.6 | 8.0 | 0.00 | 0.00 | 0.00 | 37 | 1018.7 |
| 20260902201007 | 35 | 165 | 3.2 | 8.0 | 0.00 | 0.00 | 0.00 | 37 | 1018.7 |
| 20260902200516 | 35 | 118 | 0.0 | 8.0 | 0.00 | 0.00 | 0.00 | 36 | 1018.6 |
| 20260902200022 | 35 | 190 | 1.6 | 8.0 | 0.00 | 0.00 | 0.00 | 36 | 1018.7 |
| 20260902195513 | 35 | 198 | 1.6 | 6.4 | 0.00 | 0.00 | 0.00 | 37 | 1018.8 |
| 20260902195011 | 34 | 85 | 0.0 | 6.4 | 0.00 | 0.00 | 0.00 | 38 | 1018.9 |
| 20260902194537 | 34 | 106 | 1.6 | 8.0 | 0.00 | 0.00 | 0.00 | 40 | 1019.0 |
| 20260902194015 | 34 | 97 | 1.6 | 8.0 | 0.00 | 0.00 | 0.00 | 41 | 1019.1 |
| 20260902193516 | 34 | 101 | 0.0 | 4.8 | 0.00 | 0.00 | 0.00 | 43 | 1019.1 |
| 20260902193030 | 33 | 94 | 0.0 | 8.0 | 0.00 | 0.00 | 0.00 | 45 | 1019.1 |
| 20260902192517 | 34 | 89 | 1.6 | 9.7 | 0.00 | 0.00 | 0.00 | 41 | 1019.3 |
| 20260902192019 | 34 | 208 | 3.2 | 9.7 | 0.00 | 0.00 | 0.00 | 41 | 1019.3 |
| 20260902191512 | 34 | 174 | 1.6 | 9.7 | 0.00 | 0.00 | 0.00 | 41 | 1019.3 |
| 20260902191007 | 34 | 175 | 3.2 | 9.7 | 0.00 | 0.00 | 0.00 | 42 | 1019.3 |
| 20260902190507 | 34 | 92 | 1.6 | 4.8 | 0.00 | 0.00 | 0.00 | 42 | 1019.3 |
| 20260902190018 | 33 | 132 | 1.6 | 8.0 | 0.00 | 0.00 | 0.00 | 43 | 1019.4 |
| 20260902185512 | 33 | 149 | 1.6 | 8.0 | 0.00 | 0.00 | 0.00 | 44 | 1019.5 |
| 20260902185016 | 33 | 115 | 1.6 | 6.4 | 0.00 | 0.00 | 0.00 | 44 | 1019.6 |
| 20260902184529 | 33 | 190 | 0.0 | 6.4 | 0.00 | 0.00 | 0.00 | 42 | 1019.6 |
| 20260902184015 | 33 | 156 | 3.2 | 6.4 | 0.00 | 0.00 | 0.00 | 42 | 1019.6 |
| 20260902183513 | 33 | 92 | 1.6 | 4.8 | 0.00 | 0.00 | 0.00 | 43 | 1019.6 |
| 20260902183030 | 33 | 140 | 1.6 | 4.8 | 0.00 | 0.00 | 0.00 | 44 | 1019.6 |
| 20260902182516 | 33 | 105 | 0.0 | 4.8 | 0.00 | 0.00 | 0.00 | 47 | 1019.6 |
| 20260902182016 | 33 | 158 | 1.6 | 6.4 | 0.00 | 0.00 | 0.00 | 47 | 1019.6 |
| 20260902181531 | 33 | 94 | 1.6 | 8.0 | 0.00 | 0.00 | 0.00 | 45 | 1019.6 |
| 20260902181018 | 32 | 192 | 4.8 | 8.0 | 0.00 | 0.00 | 0.00 | 44 | 1019.8 |
| 20260902180516 | 32 | 111 | 1.6 | 6.4 | 0.00 | 0.00 | 0.00 | 45 | 1019.8 |
| 20260902180014 | 32 | 108 | 1.6 | 4.8 | 0.00 | 0.00 | 0.00 | 45 | 1019.8 |
| 20260902175508 | 32 | 130 | 1.6 | 4.8 | 0.00 | 0.00 | 0.00 | 46 | 1019.9 |
| 20260902175012 | 32 | 99 | 0.0 | 4.8 | 0.00 | 0.00 | 0.00 | 46 | 1019.9 |
| 20260902174520 | 32 | 115 | 0.0 | 6.4 | 0.00 | 0.00 | 0.00 | 45 | 1020.0 |
| 20260902174015 | 32 | 94 | 1.6 | 6.4 | 0.00 | 0.00 | 0.00 | 46 | 1020.1 |
| 20260902173525 | 32 | 182 | 1.6 | 8.0 | 0.00 | 0.00 | 0.00 | 48 | 1020.1 |
| 20260902173026 | 32 | 111 | 1.6 | 8.0 | 0.00 | 0.00 | 0.00 | 49 | 1020.3 |
| 20260902172514 | 32 | 81 | 1.6 | 4.8 | 0.00 | 0.00 | 0.00 | 49 | 1020.3 |
| 20260902172016 | 32 | 210 | 0.0 | 3.2 | 0.00 | 0.00 | 0.00 | 48 | 1020.2 |
| 20260902171530 | 32 | 128 | 0.0 | 4.8 | 0.00 | 0.00 | 0.00 | 48 | 1020.4 |
| 20260902171023 | 32 | 131 | 0.0 | 6.4 | 0.00 | 0.00 | 0.00 | 48 | 1020.4 |
| 20260902170514 | 32 | 93 | 1.6 | 8.0 | 0.00 | 0.00 | 0.00 | 48 | 1020.4 |
| 20260902170030 | 32 | 228 | 3.2 | 8.0 | 0.00 | 0.00 | 0.00 | 48 | 1020.5 |
| 20260902165519 | 32 | 149 | 0.0 | 4.8 | 0.00 | 0.00 | 0.00 | 48 | 1020.4 |
| 20260902165018 | 32 | 88 | 1.6 | 4.8 | 0.00 | 0.00 | 0.00 | 46 | 1020.5 |
| 20260902164515 | 32 | 151 | 0.0 | 11.3 | 0.00 | 0.00 | 0.00 | 49 | 1020.6 |
| 20260902164011 | 32 | 124 | 3.2 | 9.7 | 0.00 | 0.00 | 0.00 | 49 | 1020.6 |
| 20260902163514 | 31 | 199 | 0.0 | 8.0 | 0.00 | 0.00 | 0.00 | 51 | 1020.6 |
| 20260902163023 | 31 | 255 | 0.0 | 8.0 | 0.00 | 0.00 | 0.00 | 52 | 1020.7 |
| 20260902162515 | 31 | 205 | 0.0 | 4.8 | 0.00 | 0.00 | 0.00 | 52 | 1020.7 |
| 20260902162018 | 31 | 121 | 0.0 | 8.0 | 0.00 | 0.00 | 0.00 | 51 | 1020.6 |
| 20260902161535 | 31 | 211 | 1.6 | 8.0 | 0.00 | 0.00 | 0.00 | 54 | 1020.7 |
| 20260902161017 | 31 | 205 | 0.0 | 4.8 | 0.00 | 0.00 | 0.00 | 54 | 1020.8 |
| 20260902160515 | 31 | 105 | 0.0 | 4.8 | 0.00 | 0.00 | 0.00 | 54 | 1020.8 |
| 20260902160031 | 31 | 157 | 0.0 | 6.4 | 0.00 | 0.00 | 0.00 | 53 | 1021.0 |
| 20260902155514 | 30 | 165 | 0.0 | 6.4 | 0.00 | 0.00 | 0.00 | 55 | 1021.1 |
| 20260902155020 | 30 | 109 | 0.0 | 6.4 | 0.00 | 0.00 | 0.00 | 55 | 1021.0 |
| 20260902154531 | 30 | 109 | 1.6 | 6.4 | 0.00 | 0.00 | 0.00 | 57 | 1021.1 |
| 20260902154019 | 30 | 103 | 0.0 | 4.8 | 0.00 | 0.00 | 0.00 | 57 | 1021.1 |
| 20260902153521 | 30 | 118 | 0.0 | 6.4 | 0.00 | 0.00 | 0.00 | 59 | 1021.0 |
| 20260902153020 | 30 | 124 | 0.0 | 8.0 | 0.00 | 0.00 | 0.00 | 60 | 1021.0 |
| 20260902152513 | 30 | 236 | 1.6 | 8.0 | 0.00 | 0.00 | 0.00 | 60 | 1021.1 |
| 20260902152011 | 29 | 223 | 1.6 | 6.4 | 0.00 | 0.00 | 0.00 | 58 | 1021.1 |
| 20260902151528 | 29 | 205 | 1.6 | 6.4 | 0.00 | 0.00 | 0.00 | 60 | 1021.0 |
| 20260902151016 | 29 | 223 | 0.0 | 9.7 | 0.00 | 0.00 | 0.00 | 60 | 1021.0 |
| 20260902150516 | 28 | 221 | 3.2 | 9.7 | 0.00 | 0.00 | 0.00 | 60 | 1020.9 |
| 20260902150030 | 28 | 182 | 1.6 | 8.0 | 0.00 | 0.00 | 0.00 | 63 | 1020.9 |
| 20260902145517 | 28 | 196 | 0.0 | 4.8 | 0.00 | 0.00 | 0.00 | 63 | 1020.9 |
| 20260902145018 | 28 | 184 | 0.0 | 8.0 | 0.00 | 0.00 | 0.00 | 63 | 1020.8 |
| 20260902144529 | 28 | 218 | 4.8 | 8.0 | 0.00 | 0.00 | 0.00 | 62 | 1020.8 |
| 20260902144016 | 28 | 215 | 3.2 | 8.0 | 0.00 | 0.00 | 0.00 | 64 | 1020.7 |
| 20260902143522 | 28 | 211 | 0.0 | 6.4 | 0.00 | 0.00 | 0.00 | 64 | 1020.7 |
| 20260902143033 | 27 | 234 | 0.0 | 4.8 | 0.00 | 0.00 | 0.00 | 65 | 1020.7 |
| 20260902142519 | 27 | 121 | 0.0 | 4.8 | 0.00 | 0.00 | 0.00 | 66 | 1020.8 |
| 20260902142015 | 27 | 121 | 0.0 | 4.8 | 0.00 | 0.00 | 0.00 | 67 | 1020.8 |
| 20260902141524 | 27 | 207 | 0.0 | 3.2 | 0.00 | 0.00 | 0.00 | 67 | 1020.8 |
| 20260902141015 | 27 | 147 | 0.0 | 3.2 | 0.00 | 0.00 | 0.00 | 67 | 1020.8 |
| 20260902140514 | 27 | 232 | 0.0 | 3.2 | 0.00 | 0.00 | 0.00 | 67 | 1020.7 |
| 20260902140028 | 27 | 180 | 0.0 | 3.2 | 0.00 | 0.00 | 0.00 | 69 | 1020.7 |
| 20260902135513 | 26 | 126 | 0.0 | 4.8 | 0.00 | 0.00 | 0.00 | 69 | 1020.7 |
| 20260902135013 | 26 | 209 | 0.0 | 4.8 | 0.00 | 0.00 | 0.00 | 69 | 1020.7 |
| 20260902134536 | 26 | 192 | 0.0 | 4.8 | 0.00 | 0.00 | 0.00 | 70 | 1020.7 |
| 20260902134016 | 26 | 161 | 0.0 | 4.8 | 0.00 | 0.00 | 0.00 | 71 | 1020.6 |
| 20260902133515 | 26 | 205 | 0.0 | 4.8 | 0.00 | 0.00 | 0.00 | 71 | 1020.6 |
| 20260902133033 | 26 | 115 | 0.0 | 4.8 | 0.00 | 0.00 | 0.00 | 72 | 1020.6 |
| 20260902132517 | 26 | 115 | 0.0 | 4.8 | 0.00 | 0.00 | 0.00 | 72 | 1020.6 |
| 20260902132011 | 25 | 217 | 0.0 | 3.2 | 0.00 | 0.00 | 0.00 | 73 | 1020.6 |
| 20260902131519 | 25 | 91 | 0.0 | 3.2 | 0.00 | 0.00 | 0.00 | 74 | 1020.6 |
| 20260902131012 | 25 | 148 | 0.0 | 3.2 | 0.00 | 0.00 | 0.00 | 74 | 1020.6 |
| 20260902130513 | 25 | 103 | 0.0 | 0.0 | 0.00 | 0.00 | 0.00 | 75 | 1020.6 |
| 20260902130027 | 25 | 108 | 0.0 | 0.0 | 0.00 | 0.00 | 0.00 | 75 | 1020.5 |
| 20260902125514 | 25 | 101 | 0.0 | 0.0 | 0.00 | 0.00 | 0.00 | 76 | 1020.6 |
| 20260902125017 | 25 | 101 | 0.0 | 3.2 | 0.00 | 0.00 | 0.00 | 76 | 1020.5 |
| 20260902124527 | 24 | 101 | 0.0 | 3.2 | 0.00 | 0.00 | 0.00 | 77 | 1020.5 |
| 20260902124003 | 24 | 107 | 0.0 | 3.2 | 0.00 | 0.00 | 0.00 | 78 | 1020.4 |
| 20260902123507 | 23 | 111 | 0.0 | 1.6 | 0.00 | 0.00 | 0.00 | 79 | 1020.4 |
| 20260902123018 | 23 | 163 | 0.0 | 1.6 | 0.00 | 0.00 | 0.00 | 80 | 1020.5 |
| 20260902122511 | 23 | 163 | 0.0 | 1.6 | 0.00 | 0.00 | 0.00 | 81 | 1020.4 |
| 20260902122006 | 23 | 163 | 0.0 | 1.6 | 0.00 | 0.00 | 0.00 | 82 | 1020.3 |
| 20260902121515 | 23 | 163 | 0.0 | 0.0 | 0.00 | 0.00 | 0.00 | 83 | 1020.4 |
| 20260902121010 | 23 | 163 | 0.0 | 1.6 | 0.00 | 0.00 | 0.00 | 84 | 1020.3 |
| 20260902120512 | 22 | 163 | 0.0 | 1.6 | 0.00 | 0.00 | 0.00 | 85 | 1020.3 |
| 20260902120024 | 22 | 163 | 0.0 | 0.0 | 0.00 | 0.00 | 0.00 | 86 | 1020.3 |
| 20260902115520 | 22 | 163 | 0.0 | 0.0 | 0.00 | 0.00 | 0.00 | 87 | 1020.3 |
| 20260902115014 | 22 | 163 | 0.0 | 0.0 | 0.00 | 0.00 | 0.00 | 87 | 1020.3 |
| 20260902114527 | 22 | 163 | 0.0 | 0.0 | 0.00 | 0.00 | 0.00 | 87 | 1020.2 |
| 20260902114014 | 22 | 163 | 0.0 | 0.0 | 0.00 | 0.00 | 0.00 | 87 | 1020.2 |
| 20260902113515 | 22 | 163 | 0.0 | 0.0 | 0.00 | 0.00 | 0.00 | 87 | 1020.1 |
| 20260902113031 | 22 | 163 | 0.0 | 0.0 | 0.00 | 0.00 | 0.00 | 87 | 1020.1 |
| 20260902112508 | 22 | 163 | 0.0 | 0.0 | 0.00 | 0.00 | 0.00 | 87 | 1020.0 |
| 20260902112007 | 22 | 163 | 0.0 | 0.0 | 0.00 | 0.00 | 0.00 | 87 | 1020.0 |
| 20260902111511 | 22 | 165 | 0.0 | 0.0 | 0.00 | 0.00 | 0.00 | 87 | 1020.0 |
| 20260902111011 | 22 | 165 | 0.0 | 0.0 | 0.00 | 0.00 | 0.00 | 87 | 1019.9 |
| 20260902110511 | 22 | 165 | 0.0 | 0.0 | 0.00 | 0.00 | 0.00 | 87 | 1019.8 |
| 20260902110029 | 22 | 165 | 0.0 | 0.0 | 0.00 | 0.00 | 0.00 | 86 | 1019.9 |
| 20260902105512 | 22 | 165 | 0.0 | 0.0 | 0.00 | 0.00 | 0.00 | 87 | 1019.8 |
| 20260902105014 | 22 | 165 | 0.0 | 0.0 | 0.00 | 0.00 | 0.00 | 87 | 1019.9 |
| 20260902104543 | 22 | 165 | 0.0 | 0.0 | 0.00 | 0.00 | 0.00 | 87 | 1019.8 |
| 20260902104017 | 22 | 165 | 0.0 | 0.0 | 0.00 | 0.00 | 0.00 | 86 | 1019.8 |
| 20260902103516 | 22 | 165 | 0.0 | 0.0 | 0.00 | 0.00 | 0.00 | 86 | 1019.8 |
| 20260902103028 | 22 | 165 | 0.0 | 0.0 | 0.00 | 0.00 | 0.00 | 87 | 1019.7 |
| 20260902102515 | 22 | 165 | 0.0 | 0.0 | 0.00 | 0.00 | 0.00 | 86 | 1019.7 |
| 20260902102017 | 22 | 165 | 0.0 | 0.0 | 0.00 | 0.00 | 0.00 | 86 | 1019.7 |
| 20260902101532 | 22 | 165 | 0.0 | 0.0 | 0.00 | 0.00 | 0.00 | 86 | 1019.7 |
| 20260902101007 | 22 | 165 | 0.0 | 0.0 | 0.00 | 0.00 | 0.00 | 86 | 1019.6 |
| 20260902100510 | 22 | 165 | 0.0 | 0.0 | 0.00 | 0.00 | 0.00 | 85 | 1019.6 |
| 20260902100015 | 22 | 165 | 0.0 | 0.0 | 0.00 | 0.00 | 0.00 | 85 | 1019.6 |
| 20260902095510 | 22 | 165 | 0.0 | 0.0 | 0.00 | 0.00 | 0.00 | 85 | 1019.5 |
| 20260902095012 | 22 | 165 | 0.0 | 0.0 | 0.00 | 0.00 | 0.00 | 85 | 1019.5 |
| 20260902094523 | 22 | 165 | 0.0 | 0.0 | 0.00 | 0.00 | 0.00 | 85 | 1019.5 |
| 20260902094012 | 22 | 165 | 0.0 | 0.0 | 0.00 | 0.00 | 0.00 | 85 | 1019.4 |
| 20260902093515 | 22 | 165 | 0.0 | 0.0 | 0.00 | 0.00 | 0.00 | 85 | 1019.4 |
| 20260902093030 | 22 | 165 | 0.0 | 0.0 | 0.00 | 0.00 | 0.00 | 85 | 1019.3 |
| 20260902092515 | 22 | 165 | 0.0 | 0.0 | 0.00 | 0.00 | 0.00 | 85 | 1019.3 |
| 20260902092022 | 22 | 165 | 0.0 | 0.0 | 0.00 | 0.00 | 0.00 | 85 | 1019.4 |
| 20260902091530 | 22 | 165 | 0.0 | 0.0 | 0.00 | 0.00 | 0.00 | 85 | 1019.3 |
| 20260902091015 | 22 | 165 | 0.0 | 0.0 | 0.00 | 0.00 | 0.00 | 85 | 1019.3 |
| 20260902090519 | 23 | 165 | 0.0 | 0.0 | 0.00 | 0.00 | 0.00 | 85 | 1019.3 |
| 20260902090034 | 23 | 165 | 0.0 | 0.0 | 0.00 | 0.00 | 0.00 | 85 | 1019.3 |
| 20260902085509 | 23 | 165 | 0.0 | 0.0 | 0.00 | 0.00 | 0.00 | 85 | 1019.3 |
| 20260902085011 | 23 | 165 | 0.0 | 0.0 | 0.00 | 0.00 | 0.00 | 85 | 1019.3 |
| 20260902084520 | 23 | 165 | 0.0 | 0.0 | 0.00 | 0.00 | 0.00 | 84 | 1019.2 |
| 20260902084020 | 23 | 165 | 0.0 | 0.0 | 0.00 | 0.00 | 0.00 | 84 | 1019.1 |
| 20260902083512 | 23 | 165 | 0.0 | 0.0 | 0.00 | 0.00 | 0.00 | 84 | 1019.1 |
| 20260902083024 | 23 | 165 | 0.0 | 0.0 | 0.00 | 0.00 | 0.00 | 84 | 1019.1 |
| 20260902082516 | 23 | 165 | 0.0 | 0.0 | 0.00 | 0.00 | 0.00 | 84 | 1019.2 |
| 20260902082013 | 23 | 165 | 0.0 | 0.0 | 0.00 | 0.00 | 0.00 | 84 | 1019.2 |
| 20260902081528 | 23 | 165 | 0.0 | 0.0 | 0.00 | 0.00 | 0.00 | 84 | 1019.2 |
| 20260902081017 | 23 | 165 | 0.0 | 0.0 | 0.00 | 0.00 | 0.00 | 84 | 1019.2 |
| 20260902080516 | 23 | 165 | 0.0 | 0.0 | 0.00 | 0.00 | 0.00 | 83 | 1019.2 |
| 20260902080030 | 23 | 165 | 0.0 | 0.0 | 0.00 | 0.00 | 0.00 | 83 | 1019.1 |
| 20260902075518 | 23 | 165 | 0.0 | 0.0 | 0.00 | 0.00 | 0.00 | 83 | 1019.1 |
| 20260902075019 | 23 | 165 | 0.0 | 0.0 | 0.00 | 0.00 | 0.00 | 83 | 1019.1 |
| 20260902074534 | 23 | 165 | 0.0 | 0.0 | 0.00 | 0.00 | 0.00 | 83 | 1019.1 |
| 20260902074012 | 23 | 165 | 0.0 | 0.0 | 0.00 | 0.00 | 0.00 | 83 | 1019.1 |
| 20260902073513 | 23 | 165 | 0.0 | 0.0 | 0.00 | 0.00 | 0.00 | 83 | 1019.0 |
| 20260902073023 | 23 | 165 | 0.0 | 0.0 | 0.00 | 0.00 | 0.00 | 83 | 1019.1 |
| 20260902072519 | 23 | 165 | 0.0 | 0.0 | 0.00 | 0.00 | 0.00 | 83 | 1019.0 |
| 20260902072003 | 23 | 165 | 0.0 | 0.0 | 0.00 | 0.00 | 0.00 | 82 | 1018.9 |
| 20260902071503 | 23 | 165 | 0.0 | 0.0 | 0.00 | 0.00 | 0.00 | 82 | 1018.9 |
| 20260902071003 | 23 | 165 | 0.0 | 0.0 | 0.00 | 0.00 | 0.00 | 82 | 1018.9 |
| 20260902070505 | 23 | 165 | 0.0 | 0.0 | 0.00 | 0.00 | 0.00 | 82 | 1018.9 |
| 20260902070005 | 23 | 165 | 0.0 | 0.0 | 0.00 | 0.00 | 0.00 | 82 | 1018.9 |
| 20260902065504 | 23 | 165 | 0.0 | 0.0 | 0.00 | 0.00 | 0.00 | 82 | 1019.0 |
| 20260902065003 | 23 | 165 | 0.0 | 0.0 | 0.00 | 0.00 | 0.00 | 82 | 1018.9 |
| 20260902064510 | 23 | 165 | 0.0 | 0.0 | 0.00 | 0.00 | 0.00 | 82 | 1018.9 |
| 20260902064006 | 23 | 165 | 0.0 | 0.0 | 0.00 | 0.00 | 0.00 | 82 | 1018.9 |
| 20260902063503 | 23 | 165 | 0.0 | 0.0 | 0.00 | 0.00 | 0.00 | 82 | 1019.0 |
| 20260902063004 | 23 | 165 | 0.0 | 0.0 | 0.00 | 0.00 | 0.00 | 82 | 1019.2 |
| 20260902062504 | 23 | 165 | 0.0 | 0.0 | 0.00 | 0.00 | 0.00 | 82 | 1019.3 |
| 20260902062005 | 23 | 165 | 0.0 | 0.0 | 0.00 | 0.00 | 0.00 | 81 | 1019.3 |
| 20260902061505 | 23 | 165 | 0.0 | 0.0 | 0.00 | 0.00 | 0.00 | 81 | 1019.3 |
| 20260902061002 | 23 | 165 | 0.0 | 0.0 | 0.00 | 0.00 | 0.00 | 81 | 1019.3 |
| 20260902060501 | 23 | 165 | 0.0 | 0.0 | 0.00 | 0.00 | 0.00 | 81 | 1019.3 |
| 20260902060004 | 23 | 165 | 0.0 | 0.0 | 0.00 | 0.00 | 0.00 | 80 | 1019.3 |
| 20260902055503 | 24 | 165 | 0.0 | 0.0 | 0.00 | 0.00 | 0.00 | 79 | 1019.3 |
| 20260902055006 | 24 | 165 | 0.0 | 0.0 | 0.00 | 0.00 | 0.00 | 80 | 1019.3 |
| 20260902054503 | 24 | 165 | 0.0 | 0.0 | 0.00 | 0.00 | 0.00 | 79 | 1019.3 |
| 20260902054005 | 24 | 165 | 0.0 | 0.0 | 0.00 | 0.00 | 0.00 | 79 | 1019.2 |
| 20260902053505 | 24 | 165 | 0.0 | 0.0 | 0.00 | 0.00 | 0.00 | 79 | 1019.3 |
| 20260902053006 | 24 | 165 | 0.0 | 0.0 | 0.00 | 0.00 | 0.00 | 80 | 1019.3 |
| 20260902052506 | 24 | 165 | 0.0 | 0.0 | 0.00 | 0.00 | 0.00 | 79 | 1019.3 |
| 20260902052005 | 24 | 165 | 0.0 | 0.0 | 0.00 | 0.00 | 0.00 | 80 | 1019.3 |
| 20260902051509 | 24 | 165 | 0.0 | 0.0 | 0.00 | 0.00 | 0.00 | 80 | 1019.2 |
| 20260902051009 | 24 | 165 | 0.0 | 0.0 | 0.00 | 0.00 | 0.00 | 79 | 1019.2 |
| 20260902050508 | 24 | 165 | 0.0 | 0.0 | 0.00 | 0.00 | 0.00 | 79 | 1019.2 |
| 20260902050008 | 24 | 165 | 0.0 | 0.0 | 0.00 | 0.00 | 0.00 | 80 | 1019.2 |
| 20260902045506 | 24 | 165 | 0.0 | 0.0 | 0.00 | 0.00 | 0.00 | 79 | 1019.2 |
| 20260902045005 | 24 | 165 | 0.0 | 0.0 | 0.00 | 0.00 | 0.00 | 79 | 1019.2 |
| 20260902044513 | 24 | 165 | 0.0 | 0.0 | 0.00 | 0.00 | 0.00 | 79 | 1019.2 |
| 20260902044003 | 25 | 165 | 0.0 | 0.0 | 0.00 | 0.00 | 0.00 | 79 | 1019.1 |